When you browse on this site, cookies collect data to enhance your experience and personalize the content and advertising you see.
Visit our Privacy Policy to learn more. By continuing to use the site, you agree to this use of cookies and data.
  • în România
  • Lista ţărilor
  • Pe 7 zile
  • Temperatura apei
  • Hartă satelitară
  • Meteo pe hartă
  • Widget-uri
  • user-avatar
    Intrare

    Meteo pe oră la Elbasan

    Astăzi, 27 Iunie, Joi

    Timp Temperatura Precipitaţii Vânt Presiune Umiditate
    00:00 +24°C° 0 mm 3 m/s 738 mmHg 71%
    01:00 +24°C° 0 mm 3 m/s 738 mmHg 71%
    02:00 +22°C° 0 mm 3 m/s 737 mmHg 72%
    03:00 +22°C° 0 mm 3 m/s 737 mmHg 72%
    04:00 +22°C° 0 mm 3 m/s 737 mmHg 72%
    05:00 +24°C° 0 mm 3 m/s 737 mmHg 69%
    06:00 +26°C° 0 mm 3 m/s 737 mmHg 65%
    07:00 +28°C° 0 mm 3 m/s 737 mmHg 61%
    08:00 +29°C° 0 mm 3 m/s 737 mmHg 55%
    09:00 +30°C° 0 mm 3 m/s 737 mmHg 50%
    10:00 +33°C° 0 mm 3 m/s 737 mmHg 44%
    11:00 +33°C° 0 mm 3 m/s 737 mmHg 42%
    12:00 +34°C° 0 mm 2 m/s 737 mmHg 40%
    13:00 +35°C° 0 mm 2 m/s 737 mmHg 38%
    14:00 +34°C° 0 mm 2 m/s 736 mmHg 39%
    15:00 +34°C° 0 mm 2 m/s 736 mmHg 40%
    16:00 +34°C° 0 mm 2 m/s 735 mmHg 41%
    17:00 +31°C° 0 mm 2 m/s 735 mmHg 49%
    18:00 +29°C° 0 mm 1 m/s 734 mmHg 57%
    19:00 +27°C° 0 mm 1 m/s 734 mmHg 64%
    20:00 +26°C° 0 mm 1 m/s 734 mmHg 65%
    21:00 +25°C° 0 mm 1 m/s 734 mmHg 66%
    22:00 +25°C° 0 mm 1 m/s 735 mmHg 67%
    23:00 +24°C° 0 mm 1 m/s 734 mmHg 68%

    Mâine, 28 Iunie, Vineri

    Timp Temperatura Precipitaţii Vânt Presiune Umiditate
    00:00 +24°C° 0 mm 1 m/s 734 mmHg 67%
    01:00 +23°C° 0 mm 2 m/s 734 mmHg 67%
    02:00 +23°C° 0 mm 2 m/s 734 mmHg 66%
    03:00 +23°C° 0 mm 2 m/s 733 mmHg 64%
    04:00 +21°C° 0 mm 2 m/s 733 mmHg 63%
    05:00 +24°C° 0 mm 2 m/s 733 mmHg 59%
    06:00 +26°C° 0 mm 1 m/s 733 mmHg 56%
    07:00 +28°C° 0 mm 1 m/s 733 mmHg 52%
    08:00 +30°C° 0 mm 1 m/s 733 mmHg 48%
    09:00 +31°C° 0 mm 1 m/s 733 mmHg 43%
    10:00 +33°C° 0 mm 1 m/s 734 mmHg 39%
    11:00 +34°C° 0 mm 1 m/s 733 mmHg 38%
    12:00 +36°C° 0 mm 2 m/s 733 mmHg 38%
    13:00 +36°C° 0 mm 2 m/s 733 mmHg 37%
    14:00 +36°C° 0.1 mm 2 m/s 733 mmHg 39%
    15:00 +35°C° 0.1 mm 2 m/s 733 mmHg 41%
    16:00 +35°C° 0.1 mm 3 m/s 732 mmHg 43%
    17:00 +31°C° 0.1 mm 2 m/s 732 mmHg 51%
    18:00 +29°C° 0.1 mm 2 m/s 733 mmHg 59%
    19:00 +27°C° 0.1 mm 1 m/s 733 mmHg 67%
    20:00 +26°C° 0 mm 2 m/s 733 mmHg 69%
    21:00 +25°C° 0 mm 2 m/s 733 mmHg 71%
    22:00 +24°C° 0 mm 3 m/s 733 mmHg 73%
    23:00 +22°C° 0 mm 3 m/s 733 mmHg 73%

    Poimâine, 29 Iunie, Sâmbătă

    Timp Temperatura Precipitaţii Vânt Presiune Umiditate
    00:00 +22°C° 0 mm 3 m/s 733 mmHg 72%
    01:00 +21°C° 0 mm 4 m/s 733 mmHg 72%
    02:00 +20°C° 0 mm 4 m/s 733 mmHg 72%
    03:00 +20°C° 0 mm 4 m/s 733 mmHg 73%
    04:00 +19°C° 0 mm 4 m/s 733 mmHg 73%
    05:00 +20°C° 0 mm 4 m/s 734 mmHg 69%
    06:00 +21°C° 0 mm 4 m/s 734 mmHg 64%
    07:00 +23°C° 0 mm 4 m/s 734 mmHg 59%
    08:00 +25°C° 0 mm 4 m/s 734 mmHg 51%
    09:00 +27°C° 0 mm 4 m/s 735 mmHg 43%
    10:00 +29°C° 0 mm 3 m/s 735 mmHg 34%
    11:00 +30°C° 0 mm 3 m/s 735 mmHg 32%
    12:00 +31°C° 0 mm 3 m/s 735 mmHg 31%
    13:00 +31°C° 0 mm 3 m/s 735 mmHg 29%
    14:00 +31°C° 0 mm 3 m/s 735 mmHg 30%
    15:00 +31°C° 0 mm 3 m/s 735 mmHg 32%
    16:00 +31°C° 0 mm 3 m/s 735 mmHg 33%
    17:00 +29°C° 0 mm 3 m/s 735 mmHg 40%
    18:00 +27°C° 0 mm 3 m/s 735 mmHg 46%
    19:00 +25°C° 0 mm 3 m/s 735 mmHg 53%
    20:00 +24°C° 0 mm 3 m/s 735 mmHg 53%
    21:00 +22°C° 0 mm 3 m/s 736 mmHg 54%
    22:00 +21°C° 0 mm 3 m/s 736 mmHg 54%
    23:00 +20°C° 0 mm 3 m/s 736 mmHg 55%

    30 Iunie, Duminică

    Timp Temperatura Precipitaţii Vânt Presiune Umiditate
    00:00 +19°C° 0 mm 3 m/s 736 mmHg 57%
    01:00 +19°C° 0 mm 3 m/s 736 mmHg 58%
    02:00 +19°C° 0 mm 3 m/s 736 mmHg 61%
    03:00 +18°C° 0 mm 3 m/s 736 mmHg 64%
    04:00 +18°C° 0 mm 3 m/s 736 mmHg 67%
    05:00 +20°C° 0 mm 3 m/s 736 mmHg 64%
    06:00 +21°C° 0 mm 3 m/s 737 mmHg 61%
    07:00 +24°C° 0 mm 3 m/s 737 mmHg 58%
    08:00 +26°C° 0 mm 2 m/s 737 mmHg 50%
    09:00 +28°C° 0 mm 2 m/s 738 mmHg 43%
    10:00 +30°C° 0 mm 2 m/s 738 mmHg 36%
    11:00 +31°C° 0 mm 2 m/s 738 mmHg 34%
    12:00 +31°C° 0 mm 2 m/s 738 mmHg 32%
    13:00 +32°C° 0 mm 2 m/s 738 mmHg 30%
    14:00 +32°C° 0 mm 2 m/s 737 mmHg 32%
    15:00 +32°C° 0 mm 2 m/s 737 mmHg 34%
    16:00 +31°C° 0 mm 2 m/s 737 mmHg 36%
    17:00 +29°C° 0 mm 2 m/s 737 mmHg 44%
    18:00 +27°C° 0 mm 2 m/s 737 mmHg 52%
    19:00 +25°C° 0 mm 1 m/s 737 mmHg 60%
    20:00 +24°C° 0 mm 2 m/s 737 mmHg 60%
    21:00 +23°C° 0 mm 2 m/s 738 mmHg 60%
    22:00 +21°C° 0 mm 2 m/s 738 mmHg 60%
    23:00 +21°C° 0 mm 2 m/s 738 mmHg 61%

    1 Iulie, Luni

    Timp Temperatura Precipitaţii Vânt Presiune Umiditate
    00:00 +21°C° 0 mm 2 m/s 738 mmHg 62%
    01:00 +20°C° 0 mm 2 m/s 738 mmHg 63%
    02:00 +20°C° 0 mm 2 m/s 737 mmHg 64%
    03:00 +20°C° 0 mm 2 m/s 737 mmHg 65%
    04:00 +19°C° 0 mm 2 m/s 737 mmHg 66%
    05:00 +21°C° 0 mm 2 m/s 737 mmHg 62%
    06:00 +24°C° 0 mm 2 m/s 738 mmHg 59%
    07:00 +26°C° 0 mm 2 m/s 738 mmHg 56%
    08:00 +28°C° 0 mm 1 m/s 738 mmHg 51%
    09:00 +29°C° 0 mm 1 m/s 738 mmHg 45%
    10:00 +31°C° 0 mm 1 m/s 738 mmHg 40%
    11:00 +32°C° 0 mm 1 m/s 738 mmHg 39%
    12:00 +34°C° 0 mm 2 m/s 738 mmHg 37%
    13:00 +34°C° 0 mm 2 m/s 738 mmHg 36%
    14:00 +34°C° 0 mm 2 m/s 737 mmHg 38%
    15:00 +32°C° 0 mm 2 m/s 737 mmHg 40%
    16:00 +33°C° 0 mm 3 m/s 737 mmHg 43%
    17:00 +30°C° 0 mm 2 m/s 737 mmHg 50%
    18:00 +28°C° 0 mm 1 m/s 736 mmHg 58%
    19:00 +26°C° 0 mm 1 m/s 736 mmHg 65%
    20:00 +25°C° 0 mm 1 m/s 736 mmHg 66%
    21:00 +24°C° 0 mm 1 m/s 736 mmHg 66%
    22:00 +24°C° 0 mm 2 m/s 737 mmHg 67%
    23:00 +23°C° 0 mm 2 m/s 736 mmHg 66%

    2 Iulie, Marţi

    Timp Temperatura Precipitaţii Vânt Presiune Umiditate
    00:00 +23°C° 0 mm 2 m/s 736 mmHg 66%
    01:00 +23°C° 0 mm 2 m/s 736 mmHg 66%
    02:00 +21°C° 0 mm 2 m/s 736 mmHg 67%
    03:00 +21°C° 0 mm 2 m/s 736 mmHg 68%
    04:00 +21°C° 0 mm 2 m/s 736 mmHg 69%
    05:00 +24°C° 0 mm 1 m/s 736 mmHg 64%
    06:00 +25°C° 0 mm 1 m/s 736 mmHg 59%
    07:00 +27°C° 0 mm 1 m/s 736 mmHg 55%
    08:00 +29°C° 0 mm 1 m/s 736 mmHg 50%
    09:00 +31°C° 0 mm 1 m/s 736 mmHg 45%
    10:00 +33°C° 0 mm 1 m/s 735 mmHg 40%
    11:00 +33°C° 0 mm 1 m/s 735 mmHg 37%
    12:00 +35°C° 0 mm 2 m/s 735 mmHg 35%
    13:00 +36°C° 0 mm 2 m/s 734 mmHg 33%
    14:00 +35°C° 0 mm 2 m/s 734 mmHg 37%
    15:00 +34°C° 0 mm 3 m/s 734 mmHg 41%
    16:00 +34°C° 0 mm 3 m/s 734 mmHg 45%
    17:00 +31°C° 0 mm 2 m/s 734 mmHg 54%
    18:00 +29°C° 0 mm 1 m/s 733 mmHg 62%
    19:00 +24°C° 0 mm 0 m/s 733 mmHg 71%
    20:00 +26°C° 0 mm 1 m/s 734 mmHg 72%
    21:00 +25°C° 0 mm 1 m/s 734 mmHg 73%
    22:00 +24°C° 0 mm 1 m/s 734 mmHg 73%
    23:00 +24°C° 0 mm 1 m/s 734 mmHg 71%
    Arată mai mult